User: anonymous   Login
Location: Unspecified
(0.0000°N, 0.0000°E)
Time: 04:36:15
(UTC+00:00)
Language:

STARLINK-30999 - Orbit

View from above orbital plane
View from above orbital plane
View from above satellite
View from above satellite

Ground track
Ground track

The orbit is defined by the following mean orbital elements,

1 58551U          26145.17066883 +.00000000 +00000-0 +78737-5 0 00001
2 58551  53.1607  57.5266 0001575  94.3798 265.7383 15.30203845    02
Epoch (UTC): 25 May 2026 04:05:45
Eccentricity: 0.0001575
inclination: 53.1607°
perigee height: 474 km
apogee height: 476 km
right ascension of ascending node: 57.5266°
argument of perigee: 94.3798°
revolutions per day: 15.30203845
mean anomaly at epoch: 265.7383°

The dashed part of the orbit path shows where the satellite is in the earth's shadow,  

DLR